Retour au catalogue

STARLINK-35272

ActifCommunicationsVLEO
NORAD 65899·PAYLOAD·🇺🇸 United States

Lancé Oct 7, 2025 depuis Cape Canaveral Space Force Station

Loading…

Prochains Passages (prochaines 24 heures)

TLE

FraisSource: CelesTrak SupGP

Époque: Sep 14, 2026, 23:05 UTC

1 65899C 25224T   26257.96229167 -.00014857  00000+0 -43864-3 0  2577
2 65899  53.1581 207.6710 0001440 100.0542   3.1414 15.34421038    11

Suivez STARLINK-35272 en temps réel avec AllMySat

Download on the App Store